Regional Weather Roundup
Issued by NWS Burlington, VT

Home | Current Version | Previous Version | Text Only | Print | Product List | Glossary On
Versions: 1 2 3 4 5 6 7 8 9 10 11 12 13 14 15 16 17 18 19 20 21 22 23 24 25 26 27 28 29 30 31 32 33 34 35 36 37 38 39 40 41 42 43 44 45 46 47 48 49 50
000
ASUS41 KBTV 131930
RWRBTV
VERMONT REGIONAL WEATHER ROUNDUP
NATIONAL WEATHER SERVICE BURLINGTON VT
200 PM EST SAT FEB 13 2016

NOTE: "FAIR" INDICATES FEW OR NO CLOUDS BELOW 12,000 FEET WITH NO
SIGNIFICANT WEATHER AND/OR OBSTRUCTIONS TO VISIBILITY.

* THESE REPORTS ARE NOT UNDER NWS QUALITY CONTROL AND/OR DO NOT
  REPORT WEATHER SUCH AS PRECIPITATION AND FOG.

VTZ001>019-132000-
_____VERMONT_____


CITY           SKY/WX    TMP DP  RH WIND       PRES   REMARKS
BURLINGTON     PTSUNNY   -3 -19  46 NW20      30.09R WCI -26
MONTPELIER     CLOUDY    -4 -16  56 NW15G24   29.95R WCI -25
MORRISVILLE    MIX PCPN  -5 -16  59 NW9       30.02R WCI -22
ST. JOHNSBURY*   N/A      2 -16  42 MISG      29.92R
LYNDONVILLE*   FAIR      -2 -16  50 SW15G24   29.90R WCI -22
RUTLAND*       CLOUDY     7 -17  33 W15G22    29.94R WCI -11
SPRINGFIELD    FAIR       9 -14  34 W23G30    29.93R WCI -11
HIGHGATE*      CLOUDY   -10 -24  50 W12G22    30.15R WCI -30
NEWPORT*       CLOUDY    -9 -20  58 NW12      29.97R WCI -29
BENNINGTON     PTSUNNY    3 -15  43 W14G31    30.00R WCI -15
MT. MANSFIELD*   N/A    -18 N/A N/A NW32        N/A  WCI -52

_____LAKE CHAMPLAIN_____


CITY           SKY/WX    TMP DP  RH WIND       PRES   REMARKS
COLCHESTER RF*   N/A     -2 -13  60 NW25        N/A  WCI -27
DIAMOND ISL*     N/A      1 -17  42 NW17        N/A  WCI -19

$$

NYZ007-026>031-035-052-083-132000-
_____NORTHERN NEW YORK_____


CITY           SKY/WX    TMP DP  RH WIND       PRES   REMARKS
PLATTSBURGH    FAIR      -6 -24  41 W12G21    30.12R WCI -25
SARANAC LAKE   CLOUDY   -17 -28  57 W15G24    29.96R WCI -41
MASSENA        CLOUDY   -12 -26  49 W14       30.25R WCI -34
OGDENSBURG*    SUNNY     -8 -26  41 NW12      30.25S WCI -27
WATERTOWN      FAIR     -10 -24  50 NW10      30.29R WCI -29
ALBANY         PTSUNNY    4 -14  43 NW22G37   30.13R WCI -18
GLENS FALLS    FAIR       6 -19  30 W17G26    30.05R WCI -13

$$
NHZ002-005-011-132000-
_____NEW HAMPSHIRE_____


CITY           SKY/WX    TMP DP  RH WIND       PRES   REMARKS
LEBANON        MIX PCPN  11  -4  51 NW10G28   29.91R WCI  -3
MT WASHINGTON  DRFTSNOW -18 -18 100 W38         N/A  VSB 1/8 WCI -54
PLYMOUTH       CLOUDY     8 -12  38 NW16G24   29.89R WCI -10
WHITEFIELD     PTSUNNY    6 -10  47 W17G23    29.83R WCI -13

$$

_____REGIONAL QUEBEC LOCATIONS_____


CITY           SKY/WX    TMP DP  RH WIND       PRES   REMARKS
MONTREAL       PTSUNNY   -9 -22  54 W22G29    30.15R WCI -35
QUEBEC CITY    PTSUNNY   -2 -11  65 SW22G31   29.91R WCI -26
SHERBROOKE     CLOUDY    -9 -20  59 NW18G24   29.96R HAZE    WCI -33

_____REGIONAL ONTARIO LOCATIONS_____


CITY           SKY/WX    TMP DP  RH WIND       PRES   REMARKS
OTTAWA         CLOUDY   -13 -27  48 W17G30    30.23R WCI -38

______KEY______
VSB  - VISIBILITY IN MILES
WCI  - WIND CHILL INDEX
HX   - HEAT INDEX
$$
NNNN



USA.gov is the U.S. government's official web portal to all federal, state and local government web resources and services.